This demonstration page uses our WeatherBlox Daily Observations layout. Learn more.

41.55636, -103.73856

Hourly Observations for May 25, 2017

Temp ( °F °C ) Dew Point ( °F °C ) Humidity (%) Winds ( mph kmh ) Pressure ( in mb ) Visibility ( mi km ) Precip ( " mm )
12:53 am 00:53 Clear 58 14.4 46 7.8 65 65 NNE 9 15 29.33 993 10 16.0934 0 0
1:53 am 01:53 Clear 59 15 42 5.6 54 54 W 5 7 29.32 993 10 16.0934 0 0
2:53 am 02:53 Clear 55 12.8 45 7.2 69 69 Calm 29.33 993 10 16.0934 0 0
3:53 am 03:53 Mostly Cloudy 56 13.3 46 7.8 70 70 NW 18 30 29.39 995 10 16.0934 0 0
4:53 am 04:53 Clear 54 12.2 46 7.8 75 75 WSW 3 6 29.4 996 10 16.0934 0 0
5:53 am 05:53 Sunny 55 12.8 46 7.8 72 72 NW 3 6 29.4 996 10 16.0934 0 0
6:53 am 06:53 Sunny 56 13.3 46 7.8 70 70 WNW 8 13 29.41 996 10 16.0934 0 0
7:53 am 07:53 Sunny 58 14.4 46 7.8 65 65 WNW 7 11 29.41 996 10 16.0934 0 0
8:53 am 08:53 Sunny 63 17.2 43 6.1 48 48 WNW 6 9 29.44 997 10 16.0934 0 0
9:53 am 09:53 Sunny 65 18.3 46 7.8 51 51 W 8 13 29.45 997 10 16.0934 0 0
10:53 am 10:53 Sunny 68 20 44 6.7 42 42 W 8 13 29.44 997 10 16.0934 0 0
11:53 am 11:53 Sunny 68 20 44 6.7 42 42 W 8 13 29.47 998 10 16.0934 0 0
12:53 pm 12:53 Sunny 71 21.7 45 7.2 39 39 W 8 13 29.46 998 10 16.0934 0 0
1:53 pm 13:53 Cloudy 71 21.7 48 8.9 44 44 W 9 15 29.46 998 10 16.0934 0 0
2:53 pm 14:53 Cloudy with Light Rain 65 18.3 45 7.2 49 49 W 14 22 29.53 1000 9 14.48406 0 0.0254
3:53 pm 15:53 Cloudy with Light Rain 69 20.6 47 8.3 45 45 WNW 7 11 29.49 999 10 16.0934 0 0.0254
4:53 pm 16:53 Partly Cloudy 69 20.6 44 6.7 41 41 WSW 12 19 29.51 999 10 16.0934 0 0.0254
5:53 pm 17:53 Mostly Cloudy 69 20.6 43 6.1 39 39 N 12 19 29.53 1000 10 16.0934 0 0
6:49 pm 18:49 Mostly Cloudy with Nearby Thunderstorms 63 17 48 9 59 59 N 12 19 29.56 1001 10 16.0934 0.02 0.508
6:53 pm 18:53 Mostly Cloudy with Nearby Thunderstorms 63 17.2 47 8.3 56 56 NNE 10 17 29.59 1002 10 16.0934 0.02 0.508
7:04 pm 19:04 Partly Cloudy 63 17 48 9 59 59 ENE 7 11 29.56 1001 10 16.0934 0 0
7:53 pm 19:53 Cloudy 58 14.4 51 10.6 78 78 S 7 11 29.64 1004 10 16.0934 0 0
8:53 pm 20:53 Mostly Cloudy 57 13.9 52 11.1 83 83 Calm 29.65 1004 10 16.0934 0 0
9:53 pm 21:53 Mostly Cloudy 56 13.3 51 10.6 84 84 Calm 29.69 1005 10 16.0934 0 0
10:53 pm 22:53 Clear 52 11.1 39 3.9 61 61 NNW 9 15 29.74 1007 10 16.0934 0 0
11:53 pm 23:53 Clear 52 11.1 39 3.9 61 61 N 15 24 29.74 1007 10 16.0934 0 0

Powered by AerisWeather